GW6435 Weather Reports


time (UTC)temp
F
wind
direction
speed
knots
gust
knots
rain 1hr
in
rain 24hr
in
rain mn
in
humidity
%
barometer
mb
20260508023645 79 63 0.0 0.9 0.00 0.00 0.00 81 1018.9
20260508023143 79 17 0.0 0.9 0.00 0.00 0.00 81 1018.7
20260508022638 80 83 0.9 0.9 0.00 0.00 0.00 80 1019.0
20260508022136 80 107 0.9 0.9 0.00 0.00 0.00 80 1018.8
20260508021631 80 109 0.9 0.9 0.00 0.00 0.00 80 1018.9
20260508021127 80 285 0.0 0.0 0.00 0.00 0.00 80 1018.8
20260508020625 80 292 0.0 0.9 0.00 0.00 0.00 80 1018.9
20260508020123 80 28 0.9 0.9 0.00 0.00 0.00 80 1019.0
20260508015620 80 61 0.0 0.9 0.00 0.00 0.00 80 1018.6
20260508015117 80 86 0.9 1.7 0.00 0.00 0.00 79 1018.9
20260508014613 80 69 1.7 1.7 0.00 0.00 0.00 79 1018.8
20260508014109 80 60 0.9 1.7 0.00 0.00 0.00 79 1018.7
20260508013605 80 62 0.9 1.7 0.00 0.00 0.00 78 1018.8
20260508013103 80 94 0.9 2.6 0.00 0.00 0.00 78 1018.7
20260508012600 80 78 1.7 2.6 0.00 0.00 0.00 78 1018.5
20260508012057 80 115 0.9 1.7 0.00 0.00 0.00 78 1018.7
20260508011556 80 85 0.9 1.7 0.00 0.00 0.00 78 1018.7
20260508011053 80 104 2.6 2.6 0.00 0.00 0.00 78 1018.7
20260508010549 81 76 2.6 2.6 0.00 0.00 0.00 78 1018.6
20260508010047 80 82 1.7 2.6 0.00 0.00 0.00 78 1018.7
20260508005543 81 65 1.7 2.6 0.00 0.00 0.00 77 1018.5
20260508005040 81 102 0.9 2.6 0.00 0.00 0.00 77 1018.3
20260508004536 81 95 1.7 2.6 0.00 0.00 0.00 76 1018.3
20260508004033 81 64 1.7 2.6 0.00 0.00 0.00 77 1018.4
20260508003529 81 92 1.7 3.5 0.00 0.00 0.00 76 1018.3
20260508003027 81 82 2.6 3.5 0.00 0.00 0.00 76 1018.5
20260508002523 81 75 0.9 3.5 0.00 0.00 0.00 76 1018.3
20260508002021 81 89 1.7 5.2 0.00 0.00 0.00 76 1018.3
20260508001516 82 77 5.2 5.2 0.00 0.00 0.00 75 1018.3
20260508001012 82 83 0.9 5.2 0.00 0.00 0.00 75 1018.1
20260508000508 82 90 1.7 2.6 0.00 0.00 0.00 74 1018.1
20260508000006 82 44 2.6 5.2 0.00 0.00 0.00 74 1018.1
20260507235502 82 134 1.7 3.5 0.00 0.00 0.00 74 1018.2
20260507235000 82 94 2.6 5.2 0.00 0.00 0.00 74 1018.2
20260507234456 82 198 0.9 5.2 0.00 0.00 0.00 73 1018.1
20260507233953 83 189 0.9 6.1 0.00 0.00 0.00 73 1018.1
20260507233449 83 108 1.7 3.5 0.00 0.00 0.00 73 1018.0
20260507232948 83 199 1.7 2.6 0.00 0.00 0.00 73 1017.8
20260507232444 83 107 0.9 2.6 0.00 0.00 0.00 73 1017.7
20260507231942 82 102 1.7 2.6 0.00 0.00 0.00 73 1017.6
20260507231437 82 89 1.7 2.6 0.00 0.00 0.00 73 1017.5
20260507230935 82 77 3.5 5.2 0.00 0.00 0.00 73 1017.3
20260507230432 82 64 0.9 2.6 0.00 0.00 0.00 73 1017.1
20260507225932 83 75 0.9 2.6 0.00 0.00 0.00 73 1017.1
20260507225428 83 101 1.7 5.2 0.00 0.00 0.00 73 1017.2
20260507224925 83 92 2.6 3.5 0.00 0.00 0.00 73 1016.9
20260507224421 83 92 3.5 5.2 0.00 0.00 0.00 72 1017.0
20260507223918 83 103 1.7 3.5 0.00 0.00 0.00 72 1017.2
20260507223414 83 75 1.7 2.6 0.00 0.00 0.00 72 1017.1
20260507222911 83 100 2.6 3.5 0.00 0.00 0.00 71 1017.1
20260507222408 83 120 2.6 5.2 0.00 0.00 0.00 71 1017.2
20260507221904 84 71 1.7 6.1 0.00 0.00 0.00 70 1017.1
20260507221401 84 121 3.5 5.2 0.00 0.00 0.00 69 1017.2
20260507220856 84 99 6.1 7.8 0.00 0.00 0.00 70 1017.0
20260507220355 84 98 2.6 5.2 0.00 0.00 0.00 70 1017.1
20260507215851 84 45 4.3 7.0 0.00 0.00 0.00 70 1017.0
20260507215348 84 131 2.6 7.8 0.00 0.00 0.00 69 1016.9
20260507214845 85 70 4.3 7.0 0.00 0.00 0.00 68 1016.7
20260507214343 85 94 2.6 7.0 0.00 0.00 0.00 67 1016.6
20260507213843 85 88 2.6 6.1 0.00 0.00 0.00 68 1016.5
20260507213341 85 77 3.5 6.1 0.00 0.00 0.00 66 1016.6
20260507212837 85 158 4.3 7.8 0.00 0.00 0.00 65 1016.3
20260507212333 86 110 2.6 6.1 0.00 0.00 0.00 64 1016.6
20260507211830 86 93 3.5 5.2 0.00 0.00 0.00 64 1016.4
20260507211327 86 72 3.5 7.0 0.00 0.00 0.00 64 1016.3
20260507210824 86 165 5.2 7.0 0.00 0.00 0.00 64 1016.6
20260507210321 86 104 6.1 7.8 0.00 0.00 0.00 64 1016.4
20260507205817 86 88 7.0 8.7 0.00 0.00 0.00 65 1016.4
20260507205314 86 82 4.3 7.0 0.00 0.00 0.00 64 1016.4
20260507204810 86 132 1.7 7.0 0.00 0.00 0.00 64 1016.4
20260507204308 86 119 3.5 8.7 0.00 0.00 0.00 64 1016.1
20260507203806 87 91 0.9 7.8 0.00 0.00 0.00 62 1016.3
20260507203303 86 56 3.5 6.1 0.00 0.00 0.00 63 1016.5
20260507202759 86 109 5.2 7.8 0.00 0.00 0.00 63 1016.3
20260507202255 87 111 5.2 7.0 0.00 0.00 0.00 62 1016.4
20260507201750 87 121 3.5 7.8 0.00 0.00 0.00 61 1016.2
20260507201247 87 173 6.1 8.7 0.00 0.00 0.00 62 1016.6
20260507200743 88 104 6.1 11.3 0.00 0.00 0.00 60 1016.6
20260507200239 88 126 3.5 9.6 0.00 0.00 0.00 60 1016.5
20260507195735 89 106 8.7 11.3 0.00 0.00 0.00 60 1016.5
20260507195233 89 148 4.3 7.8 0.00 0.00 0.00 60 1016.5
20260507194730 89 111 7.0 13.0 0.00 0.00 0.00 59 1016.4
20260507194226 89 144 6.1 11.3 0.00 0.00 0.00 60 1016.7
20260507193723 89 86 6.1 9.6 0.00 0.00 0.00 59 1016.6
20260507193220 89 199 4.3 8.7 0.00 0.00 0.00 59 1016.8
20260507192716 89 161 7.8 9.6 0.00 0.00 0.00 58 1016.6
20260507192213 89 159 5.2 11.3 0.00 0.00 0.00 61 1016.7
20260507191708 89 135 3.5 8.7 0.00 0.00 0.00 60 1016.7
20260507191206 89 126 8.7 11.3 0.00 0.00 0.00 60 1016.8
20260507190703 88 167 4.3 7.8 0.00 0.00 0.00 61 1016.9
20260507190201 89 115 5.2 7.8 0.00 0.00 0.00 60 1017.0
20260507185659 89 110 4.3 8.7 0.00 0.00 0.00 60 1017.0
20260507185156 89 101 6.1 9.6 0.00 0.00 0.00 59 1017.1
20260507184654 90 118 6.1 9.6 0.00 0.00 0.00 58 1017.0
20260507184151 91 149 4.3 11.3 0.00 0.00 0.00 57 1017.2
20260507183647 91 225 2.6 7.0 0.00 0.00 0.00 56 1016.9
20260507183144 91 101 3.5 8.7 0.00 0.00 0.00 57 1016.9
20260507182641 90 90 5.2 7.8 0.00 0.00 0.00 58 1016.9
20260507182137 90 155 4.3 8.7 0.00 0.00 0.00 58 1016.9
20260507181633 90 135 3.5 9.6 0.00 0.00 0.00 59 1017.0
20260507181130 90 113 7.0 12.2 0.00 0.00 0.00 57 1017.3
20260507180626 89 152 3.5 7.0 0.00 0.00 0.00 56 1017.1
20260507180124 90 156 2.6 6.1 0.00 0.00 0.00 56 1017.4
20260507175619 90 143 2.6 7.8 0.00 0.00 0.00 58 1017.4
20260507175117 90 119 3.5 6.1 0.00 0.00 0.00 59 1017.1
20260507174614 89 149 2.6 9.6 0.00 0.00 0.00 61 1017.5
20260507174112 89 98 3.5 7.0 0.00 0.00 0.00 59 1017.7
20260507173609 90 110 4.3 8.7 0.00 0.00 0.00 56 1017.6
20260507173106 89 89 3.5 9.6 0.00 0.00 0.00 57 1017.9
20260507172602 89 101 5.2 8.7 0.00 0.00 0.00 57 1017.7
20260507172059 90 126 5.2 7.0 0.00 0.00 0.00 58 1018.1
20260507171554 89 93 1.7 7.8 0.00 0.00 0.00 58 1018.1
20260507171052 89 161 4.3 7.8 0.00 0.00 0.00 57 1018.1
20260507170548 89 72 5.2 7.0 0.00 0.00 0.00 61 1018.2
20260507170045 89 131 7.0 8.7 0.00 0.00 0.00 59 1018.4
20260507165541 90 237 3.5 9.6 0.00 0.00 0.00 58 1018.5
20260507165038 89 159 3.5 11.3 0.00 0.00 0.00 57 1018.5
20260507164534 88 173 3.5 7.8 0.00 0.00 0.00 58 1018.5
20260507164032 87 131 5.2 7.8 0.00 0.00 0.00 61 1018.7
20260507163529 88 136 6.1 7.8 0.00 0.00 0.00 60 1018.9
20260507163027 89 124 8.7 12.2 0.00 0.00 0.00 60 1018.8
20260507162526 89 129 5.2 8.7 0.00 0.00 0.00 59 1018.7
20260507162023 89 84 6.1 9.6 0.00 0.00 0.00 61 1018.9
20260507161520 89 96 8.7 11.3 0.00 0.00 0.00 59 1019.0
20260507161017 89 118 5.2 7.8 0.00 0.00 0.00 58 1019.0
20260507160512 89 137 3.5 6.1 0.00 0.00 0.00 62 1019.2
20260507160009 88 57 4.3 7.0 0.00 0.00 0.00 63 1019.0
20260507155504 88 169 4.3 7.0 0.00 0.00 0.00 63 1019.0
20260507155002 87 67 2.6 6.1 0.00 0.00 0.00 63 1019.0
20260507154458 88 170 4.3 9.6 0.00 0.00 0.00 62 1019.2
20260507153955 89 80 4.3 7.0 0.00 0.00 0.00 61 1019.1
20260507153452 89 126 2.6 9.6 0.00 0.00 0.00 61 1019.2
20260507152948 89 152 3.5 7.0 0.00 0.00 0.00 62 1019.3
20260507152444 88 120 4.3 7.8 0.00 0.00 0.00 62 1019.3
20260507151941 87 179 3.5 7.8 0.00 0.00 0.00 64 1019.4
20260507151437 88 135 3.5 9.6 0.00 0.00 0.00 61 1019.3
20260507150934 88 144 3.5 6.1 0.00 0.00 0.00 63 1019.3
20260507150431 88 182 4.3 7.8 0.00 0.00 0.00 60 1019.4
20260507145927 88 138 5.2 7.8 0.00 0.00 0.00 61 1019.3
20260507145423 88 156 3.5 7.8 0.00 0.00 0.00 61 1019.4
20260507144920 88 257 2.6 6.1 0.00 0.00 0.00 63 1019.6
20260507144417 88 102 5.2 8.7 0.00 0.00 0.00 63 1019.5
20260507143914 87 113 5.2 9.6 0.00 0.00 0.00 64 1019.5
20260507143412 87 107 2.6 7.0 0.00 0.00 0.00 65 1019.3
20260507142908 87 101 4.3 9.6 0.00 0.00 0.00 65 1019.5
20260507142404 87 66 7.0 11.3 0.00 0.00 0.00 63 1019.7
20260507141901 87 60 3.5 9.6 0.00 0.00 0.00 64 1019.5
20260507141357 87 121 3.5 7.0 0.00 0.00 0.00 64 1019.6
20260507140854 87 120 5.2 9.6 0.00 0.00 0.00 65 1019.6
20260507140351 88 96 5.2 7.8 0.00 0.00 0.00 66 1019.6
20260507135849 87 133 1.7 7.0 0.00 0.00 0.00 66 1019.6
20260507135345 87 80 3.5 7.8 0.00 0.00 0.00 66 1019.7
20260507134843 86 116 3.5 7.0 0.00 0.00 0.00 67 1019.6
20260507134339 85 95 3.5 6.1 0.00 0.00 0.00 69 1019.6
20260507133835 85 95 4.3 6.1 0.00 0.00 0.00 69 1019.7
20260507133330 86 59 3.5 6.1 0.00 0.00 0.00 67 1019.5
20260507132829 85 141 3.5 3.5 0.00 0.00 0.00 71 1019.3
20260507132325 85 72 3.5 6.1 0.00 0.00 0.00 69 1019.5
20260507131823 85 96 3.5 6.1 0.00 0.00 0.00 70 1019.5
20260507131319 84 157 2.6 3.5 0.00 0.00 0.00 73 1019.5
20260507130816 84 124 3.5 7.0 0.00 0.00 0.00 72 1019.4
20260507130314 83 95 3.5 6.1 0.00 0.00 0.00 75 1019.6
20260507125813 84 127 3.5 6.1 0.00 0.00 0.00 74 1019.3
20260507125309 84 179 2.6 6.1 0.00 0.00 0.00 75 1019.4
20260507124807 83 136 1.7 7.0 0.00 0.00 0.00 75 1019.3
20260507124303 83 115 3.5 5.2 0.00 0.00 0.00 75 1019.1
20260507123801 84 68 4.3 7.0 0.00 0.00 0.00 73 1019.2
20260507123258 84 79 3.5 3.5 0.00 0.00 0.00 75 1019.2
20260507122754 83 91 4.3 6.1 0.00 0.00 0.00 77 1019.2
20260507122249 83 86 5.2 7.8 0.00 0.00 0.00 77 1019.2
20260507121746 83 76 1.7 5.2 0.00 0.00 0.00 79 1019.0
20260507121242 82 49 1.7 2.6 0.00 0.00 0.00 80 1018.9
20260507120738 82 88 0.9 1.7 0.00 0.00 0.00 80 1019.0
20260507120235 82 93 0.9 1.7 0.00 0.00 0.00 80 1019.0
20260507115731 82 1 0.0 1.7 0.00 0.00 0.00 79 1018.8
20260507115227 83 83 0.9 2.6 0.00 0.00 0.00 78 1018.8
20260507114723 83 75 1.7 1.7 0.00 0.00 0.00 78 1018.7
20260507114220 82 238 0.9 0.9 0.00 0.00 0.00 80 1018.7
20260507113718 81 105 1.7 1.7 0.00 0.00 0.00 81 1018.6
20260507113214 82 214 1.7 1.7 0.00 0.00 0.00 80 1018.7
20260507112712 80 70 0.0 0.0 0.00 0.00 0.00 83 1018.7
20260507112209 80 93 0.9 0.9 0.00 0.00 0.00 85 1018.5
20260507111706 79 70 0.0 0.9 0.00 0.00 0.00 86 1018.5
20260507111203 78 42 0.9 0.9 0.00 0.00 0.00 87 1018.6
20260507110658 78 73 0.9 0.9 0.00 0.00 0.00 87 1018.6
20260507110156 78 76 1.7 1.7 0.00 0.00 0.00 87 1018.6
20260507105653 78 45 0.0 0.9 0.00 0.00 0.00 87 1018.5
20260507105148 78 78 0.9 1.7 0.00 0.00 0.00 86 1018.5
20260507104646 78 184 0.0 0.9 0.00 0.00 0.00 87 1018.4
20260507104142 78 199 0.0 0.9 0.00 0.00 0.00 87 1018.4
20260507103638 78 237 0.9 0.9 0.00 0.00 0.00 88 1018.5
20260507103135 78 101 0.9 0.9 0.00 0.00 0.00 89 1018.4
20260507102632 77 164 0.0 0.0 0.00 0.00 0.00 91 1018.4
20260507102128 77 191 0.0 0.9 0.00 0.00 0.00 92 1018.3
20260507101624 76 260 0.0 0.0 0.00 0.00 0.00 92 1018.2
20260507101120 76 66 0.0 0.0 0.00 0.00 0.00 91 1018.2
20260507100618 76 58 0.0 0.0 0.00 0.00 0.00 91 1018.0
20260507100115 76 90 0.0 0.9 0.00 0.00 0.00 91 1018.1
20260507095613 76 92 0.9 0.9 0.00 0.00 0.00 91 1018.2
20260507095109 76 88 0.0 0.9 0.00 0.00 0.00 91 1018.1
20260507094605 76 83 0.9 1.7 0.00 0.00 0.00 91 1018.3
20260507094103 76 103 0.9 1.7 0.00 0.00 0.00 91 1018.2
20260507093600 76 57 0.0 0.9 0.00 0.00 0.00 91 1018.0
20260507093059 76 92 0.9 0.9 0.00 0.00 0.00 91 1017.9
20260507092555 76 154 0.9 0.9 0.00 0.00 0.00 91 1018.1
20260507092052 76 101 3.5 3.5 0.00 0.00 0.00 90 1018.1
20260507091548 76 264 0.0 0.9 0.00 0.00 0.00 90 1018.0
20260507091044 76 125 0.0 0.9 0.00 0.00 0.00 91 1018.2
20260507090540 76 94 0.9 0.9 0.00 0.00 0.00 91 1018.0
20260507090038 76 53 0.0 0.0 0.00 0.00 0.00 90 1018.1
20260507085535 76 64 0.9 1.7 0.00 0.00 0.00 90 1018.1
20260507085031 76 330 0.9 0.9 0.00 0.00 0.00 90 1018.3
20260507084528 77 296 0.0 0.9 0.00 0.00 0.00 90 1018.0
20260507084025 77 271 0.0 0.0 0.00 0.00 0.00 90 1018.2
20260507083521 77 273 0.9 0.9 0.00 0.00 0.00 90 1018.1
20260507083019 77 74 0.0 0.9 0.00 0.00 0.00 90 1018.2
20260507082514 77 70 0.9 1.7 0.00 0.00 0.00 89 1018.2
20260507082010 77 92 0.0 0.9 0.00 0.00 0.00 90 1018.2
20260507081507 77 31 0.0 0.9 0.00 0.00 0.00 90 1017.7
20260507081004 77 90 0.9 0.9 0.00 0.00 0.00 90 1017.9
20260507080459 77 309 0.0 0.0 0.00 0.00 0.00 90 1018.0
20260507075955 77 310 0.0 0.0 0.00 0.00 0.00 90 1017.9
20260507075452 77 351 0.0 0.0 0.00 0.00 0.00 90 1017.9
20260507074948 77 74 0.0 0.0 0.00 0.00 0.00 90 1017.7
20260507074445 77 321 0.0 0.9 0.00 0.00 0.00 90 1018.0
20260507073943 77 318 0.0 0.9 0.00 0.00 0.00 90 1018.0
20260507073439 77 304 0.0 0.0 0.00 0.00 0.00 89 1017.9
20260507072936 77 325 0.0 0.0 0.00 0.00 0.00 90 1018.1
20260507072434 77 331 0.0 0.9 0.00 0.00 0.00 89 1018.1
20260507071931 77 313 0.9 0.9 0.00 0.00 0.00 89 1018.1
20260507071428 77 68 0.0 0.0 0.00 0.00 0.00 90 1018.3
20260507070924 77 43 0.0 0.9 0.00 0.00 0.00 89 1018.2
20260507070422 77 322 0.0 0.9 0.00 0.00 0.00 90 1018.3
20260507065918 77 13 0.0 0.0 0.00 0.00 0.00 90 1018.4
20260507065415 77 53 0.0 0.9 0.00 0.00 0.00 90 1018.3
20260507064913 77 322 0.0 0.0 0.00 0.00 0.00 90 1018.3
20260507064411 77 27 0.0 0.0 0.00 0.00 0.00 90 1018.5
20260507063908 77 327 0.0 0.9 0.00 0.00 0.00 90 1018.5
20260507063405 77 332 0.0 0.9 0.00 0.00 0.00 89 1018.6
20260507062902 77 328 0.0 0.9 0.00 0.00 0.00 89 1018.3
20260507062359 77 324 0.0 0.9 0.00 0.00 0.00 89 1018.6
20260507061856 78 272 0.0 0.9 0.00 0.00 0.00 89 1018.8
20260507061354 78 46 0.9 0.9 0.00 0.00 0.00 88 1018.7
20260507060853 78 62 0.9 0.9 0.00 0.00 0.00 88 1018.8
20260507060349 78 126 1.7 1.7 0.00 0.00 0.00 87 1019.0
20260507055846 78 133 0.0 0.9 0.00 0.00 0.00 88 1019.0
20260507055341 78 218 0.0 0.0 0.00 0.00 0.00 88 1019.0
20260507054838 78 219 0.9 0.9 0.00 0.00 0.00 88 1019.0
20260507054334 78 287 0.9 1.7 0.00 0.00 0.00 88 1019.1
20260507053831 78 246 0.0 0.9 0.00 0.00 0.00 87 1019.0
20260507053329 78 245 0.9 0.9 0.00 0.00 0.00 87 1019.3
20260507052828 78 248 0.9 0.9 0.00 0.00 0.00 87 1019.1
20260507052324 78 211 0.9 1.7 0.00 0.00 0.00 87 1019.4
20260507051822 78 250 0.0 0.9 0.00 0.00 0.00 88 1019.3
20260507051319 78 201 0.9 0.9 0.00 0.00 0.00 88 1019.6
20260507050816 78 264 0.0 0.9 0.00 0.00 0.00 88 1019.7
20260507050312 78 221 0.9 1.7 0.00 0.00 0.00 88 1019.7
20260507045809 79 234 0.9 0.9 0.00 0.00 0.00 88 1019.8
20260507045307 79 142 0.9 0.9 0.00 0.00 0.00 88 1019.8
20260507044803 78 114 0.9 0.9 0.00 0.00 0.00 88 1020.1
20260507044259 78 204 0.0 0.9 0.00 0.00 0.00 88 1020.1
20260507043755 79 204 0.0 0.9 0.00 0.00 0.00 88 1020.1
20260507043252 79 245 0.0 0.9 0.00 0.00 0.00 88 1020.3
20260507042748 79 177 0.0 0.9 0.00 0.00 0.00 87 1020.2
20260507042243 79 139 0.0 0.0 0.00 0.00 0.00 87 1020.2
20260507041742 79 107 0.0 0.9 0.00 0.00 0.00 87 1020.5
20260507041238 79 119 0.9 2.6 0.00 0.00 0.00 87 1020.5
20260507040735 79 104 1.7 1.7 0.00 0.00 0.00 87 1020.3
20260507040231 79 259 0.0 0.9 0.07 0.00 0.00 87 1020.5
20260507035727 79 229 0.0 0.9 0.12 0.03 0.03 87 1020.4
20260507035222 79 117 0.9 1.7 0.12 0.02 0.02 86 1020.4
20260507034720 79 62 0.0 0.9 0.00 0.00 0.00 83 1020.7
20260507034217 79 80 0.9 0.9 0.00 0.00 0.00 81 1020.5
20260507033716 80 80 0.0 0.9 0.00 0.00 0.00 80 1020.5
20260507033213 80 356 0.0 0.9 0.00 0.00 0.00 80 1020.4
20260507032710 79 268 0.0 0.0 0.00 0.00 0.00 80 1020.4
20260507032206 80 268 0.0 0.9 0.00 0.00 0.00 80 1020.3
20260507031703 80 285 0.9 0.9 0.00 0.00 0.00 79 1020.7
20260507031159 80 249 0.0 0.9 0.00 0.00 0.00 80 1020.5
20260507030656 80 258 0.0 0.9 0.00 0.00 0.00 79 1020.8
20260507030154 80 293 0.0 0.9 0.00 0.00 0.00 79 1020.7
20260507025651 80 239 0.0 0.9 0.00 0.00 0.00 80 1020.7
20260507025148 80 227 1.7 1.7 0.00 0.00 0.00 79 1020.7
20260507024646 80 237 0.9 1.7 0.00 0.00 0.00 79 1020.7
20260507024143 80 225 0.9 1.7 0.00 0.00 0.00 78 1020.5